Location: Asheville, NC
(35.6000°N, 82.5500°W)
Time: 15:57:25
(UTC-04:00)

Vanguard 2 Rocket - Pass Details

Date: 13 December 2017
Orbit: 553 x 3328 km, 32.9° (Epoch: 22 June)

Event Time Altitude Azimuth Distance (km) Brightness Sun altitude
Rises 19:42:50 0° 241° (WSW) 4,831 11.7 -28.6°
Reaches altitude 10° 19:45:30 10° 239° (WSW) 4,143 11.0 -29.2°
Maximum altitude 19:57:32 68° 159° (SSE) 2,731 9.0 -31.6°
Enters shadow 20:03:23 49° 99° (E) 3,474 9.3 -32.8°
